[[{"header":{"parameterUnit":"m.s-1","parameterCategory":1,"la1":30.2992,"la2":30.254,"lo1":-89.0895,"lo2":-89.0443,"dy":0.0025,"dx":0.0025,"nx":19,"ny":19,"refTime":"2026-05-03T21:00:00:Z","depth":0,"parameterNumber":2,"parameterNumberName":"U-component_of_WINDS"},"data":[0,0,0,1.3128,1.3131,1.327,1.327,1.3453,1.3455,0,0,0,0,0,0,0,0,0,0,0,1.3087,1.3088,1.3127,1.3131,1.327,1.327,1.3453,1.3455,0,0,0,0,0,0,0,0,0,0,0,1.3086,1.3088,1.3089,1.3131,1.327,1.327,1.3453,1.3347,0,0,0,0,0,0,0,0,0,0,1.3211,1.3173,1.3087,1.3089,1.3132,1.3269,1.327,1.3341,1.3353,1.3392,0,1.3424,0,1.3442,1.3467,1.3468,0,0,0,1.3131,1.3163,1.32,1.3089,1.3133,1.3269,1.3207,1.3348,1.3361,1.3408,1.3426,1.3433,1.3445,1.3469,1.347,1.3686,1.3687,0,0,1.3124,1.3112,1.3191,1.3208,1.3184,1.3203,1.3211,1.3356,1.3377,1.3427,1.3437,1.3448,1.347,1.3471,1.3685,1.3686,0,0,0,1.3101,1.3107,1.314,1.3201,1.3225,1.3207,1.3217,1.337,1.3382,1.3439,1.345,1.3471,1.3473,1.3684,1.3686,1.3724,0,0,0,1.3097,1.3094,1.3137,1.3132,1.3223,1.3299,1.3228,1.3372,1.3389,1.345,1.3471,1.3475,1.3683,1.3685,1.372,1.3744,0,0,0,1.3078,1.3092,1.3112,1.3131,1.319,1.3297,1.3317,1.3376,1.3396,1.3468,1.3476,1.3682,1.3685,1.3717,1.3739,1.3799,0,0,0,1.3055,1.3144,1.3112,1.3216,1.3189,1.3318,1.3316,1.3414,1.3481,1.3472,1.3683,1.3686,1.3716,1.3736,1.3795,1.3847,1.3867,0,0,1.3161,1.3156,1.3218,1.3194,1.3326,1.3298,1.3438,1.351,1.3528,1.3633,1.3639,1.3721,1.3739,1.3798,1.3983,1.3998,0,0,0,1.3248,1.3293,1.3331,1.3393,1.3449,1.3501,1.3553,1.3581,1.367,1.3579,1.3759,1.377,1.3805,1.383,1.3844,1.3876,1.3696,1.3696,1.3696,1.3383,1.34,1.3506,1.3541,1.3601,1.3655,1.3707,1.3754,1.3754,1.3797,1.3828,1.3938,1.3967,1.3977,1.401,1.3856,1.3856,1.3856,1.3857,1.3541,1.3607,1.3607,1.3708,1.3727,1.3814,1.3871,1.3868,1.3954,1.3915,1.3947,1.3904,1.3994,1.4024,1.386,1.3859,1.3859,1.3858,1.3858,1.3631,1.3666,1.3697,1.3791,1.3862,1.3895,1.3977,1.3992,1.4007,1.4039,1.4075,1.4074,1.4077,1.4055,1.4055,1.4056,1.4056,1.4056,1.4057,1.3713,1.3746,1.3812,1.3882,1.3925,1.3984,1.4041,1.4085,1.4138,1.4143,1.4143,1.4141,1.3999,1.3963,1.4063,1.4062,1.4061,1.406,1.406,1.3867,1.3835,1.3936,1.398,1.4064,1.4135,1.4153,1.4242,1.4281,1.4322,1.4313,1.4205,1.4202,1.4191,1.4162,1.4307,1.4307,1.4307,1.4307,1.3944,1.3943,1.4052,1.4121,1.419,1.4218,1.4336,1.4383,1.4426,1.4452,1.4433,1.4396,1.4384,1.4388,1.4373,1.4346,1.4535,1.4535,1.4535,1.404,1.4048,1.4144,1.4184,1.4251,1.431,1.4423,1.4504,1.4547,1.4545,1.4473,1.4463,1.4403,1.4382,1.4378,1.4354,1.4305,0,0]},{"header":{"parameterUnit":"m.s-1","parameterCategory":1,"la1":30.2992,"la2":30.254,"lo1":-89.0895,"lo2":-89.0443,"dy":0.0025,"dx":0.0025,"nx":19,"ny":19,"refTime":"2026-05-03T21:00:00:Z","depth":0,"parameterNumber":3,"parameterNumberName":"V-component_of_WINDS"},"data":[0,0,0,0.2342,0.2343,0.2384,0.2384,0.2456,0.2456,0,0,0,0,0,0,0,0,0,0,0,0.2342,0.2343,0.2342,0.2344,0.2384,0.2384,0.2456,0.2456,0,0,0,0,0,0,0,0,0,0,0,0.2342,0.2343,0.2344,0.2344,0.2384,0.2384,0.2455,0.2418,0,0,0,0,0,0,0,0,0,0,0.2375,0.2387,0.2343,0.2344,0.2344,0.2384,0.2384,0.2415,0.242,0.2446,0,0.2472,0,0.2466,0.2463,0.2463,0,0,0,0.2334,0.2383,0.2383,0.2344,0.2345,0.2384,0.2363,0.2418,0.2423,0.2452,0.2473,0.2475,0.2467,0.2463,0.2464,0.2644,0.2646,0,0,0.2332,0.2356,0.238,0.2387,0.2383,0.2362,0.2365,0.242,0.2445,0.2473,0.2476,0.2468,0.2464,0.2464,0.2643,0.2645,0,0,0,0.2332,0.2355,0.2353,0.2385,0.2391,0.2363,0.2366,0.2443,0.244,0.2477,0.2469,0.2464,0.2465,0.2642,0.2644,0.2732,0,0,0,0.233,0.2355,0.2353,0.2368,0.239,0.2417,0.2388,0.2436,0.2442,0.2468,0.2464,0.2466,0.264,0.2643,0.2727,0.2771,0,0,0,0.2336,0.2355,0.2365,0.2369,0.2388,0.2416,0.2416,0.2437,0.2437,0.2463,0.2466,0.2639,0.2642,0.2722,0.2762,0.2827,0,0,0,0.2348,0.2442,0.2367,0.2469,0.2387,0.247,0.2415,0.2475,0.2508,0.2465,0.2641,0.2644,0.272,0.2757,0.2822,0.2887,0.2916,0,0,0.248,0.2459,0.2517,0.2451,0.2553,0.2462,0.2576,0.2583,0.2562,0.2618,0.2622,0.2729,0.2762,0.2826,0.3066,0.3089,0,0,0,0.2567,0.261,0.2631,0.2664,0.2671,0.2681,0.2667,0.2669,0.2716,0.2596,0.2767,0.2786,0.2823,0.2853,0.2873,0.2903,0.2658,0.2658,0.2657,0.279,0.276,0.2854,0.2829,0.2861,0.2846,0.2869,0.2869,0.2828,0.2869,0.2886,0.3036,0.3072,0.3087,0.3119,0.2916,0.2917,0.2917,0.2917,0.2983,0.3039,0.2982,0.3054,0.3021,0.308,0.3069,0.3038,0.3089,0.302,0.3051,0.2981,0.3113,0.314,0.2923,0.2922,0.2922,0.2921,0.292,0.3128,0.315,0.3151,0.3195,0.3232,0.3202,0.3254,0.3221,0.319,0.322,0.3236,0.3235,0.3231,0.323,0.323,0.3231,0.3231,0.3231,0.3232,0.3279,0.3277,0.3325,0.3341,0.3358,0.3376,0.3361,0.3377,0.3386,0.3358,0.3358,0.3314,0.3131,0.3087,0.324,0.3238,0.3237,0.3237,0.3236,0.349,0.3437,0.3512,0.3529,0.3545,0.3585,0.3541,0.3576,0.3583,0.361,0.3559,0.3429,0.3404,0.3389,0.3352,0.3564,0.3564,0.3564,0.3564,0.3614,0.3598,0.3668,0.3697,0.3722,0.369,0.3776,0.3765,0.3746,0.3749,0.3712,0.366,0.3646,0.363,0.3609,0.3575,0.3839,0.3839,0.3839,0.3744,0.3728,0.3808,0.3789,0.3799,0.3808,0.3888,0.3924,0.389,0.385,0.3751,0.3739,0.3655,0.3629,0.3589,0.3557,0.3493,0,0]}]]